When you browse on this site, cookies collect data to enhance your experience and personalize the content and advertising you see.
Visit our Privacy Policy to learn more. By continuing to use the site, you agree to this use of cookies and data.

Meteo orario Lyon

Oggi, 14 Luglio, Martedi

Tempo Temperatura Precipitazioni Vento Pressione Umidità
00:00 +18°C° 0 mm 2 m/s 748 mm Hg 76%
01:00 +18°C° 0 mm 2 m/s 748 mm Hg 78%
02:00 +18°C° 0 mm 1 m/s 747 mm Hg 80%
03:00 +18°C° 0 mm 1 m/s 747 mm Hg 82%
04:00 +18°C° 0 mm 1 m/s 747 mm Hg 80%
05:00 +19°C° 0 mm 1 m/s 747 mm Hg 78%
06:00 +20°C° 0 mm 1 m/s 748 mm Hg 76%
07:00 +22°C° 0 mm 1 m/s 747 mm Hg 69%
08:00 +23°C° 0 mm 2 m/s 747 mm Hg 62%
09:00 +25°C° 0 mm 2 m/s 747 mm Hg 55%
10:00 +26°C° 0 mm 3 m/s 747 mm Hg 50%
11:00 +27°C° 0 mm 3 m/s 746 mm Hg 45%
12:00 +28°C° 0 mm 3 m/s 746 mm Hg 41%
13:00 +27°C° 0 mm 3 m/s 746 mm Hg 43%
14:00 +27°C° 0 mm 4 m/s 746 mm Hg 46%
15:00 +26°C° 0 mm 4 m/s 745 mm Hg 48%
16:00 +26°C° 0.1 mm 3 m/s 746 mm Hg 52%
17:00 +25°C° 0.1 mm 2 m/s 746 mm Hg 56%
18:00 +24°C° 0.1 mm 1 m/s 746 mm Hg 60%
19:00 +22°C° 0.1 mm 1 m/s 746 mm Hg 65%
20:00 +21°C° 0.1 mm 1 m/s 746 mm Hg 71%
21:00 +19°C° 0.1 mm 1 m/s 746 mm Hg 76%
22:00 +19°C° 0 mm 1 m/s 746 mm Hg 79%
23:00 +18°C° 0 mm 1 m/s 746 mm Hg 82%

Domani, 15 Luglio, Mercoledi

Tempo Temperatura Precipitazioni Vento Pressione Umidità
00:00 +18°C° 0 mm 1 m/s 746 mm Hg 84%
01:00 +18°C° 0 mm 1 m/s 746 mm Hg 85%
02:00 +16°C° 0 mm 1 m/s 746 mm Hg 85%
03:00 +16°C° 0 mm 1 m/s 746 mm Hg 86%
04:00 +16°C° 0 mm 0 m/s 746 mm Hg 84%
05:00 +17°C° 0 mm 0 m/s 746 mm Hg 81%
06:00 +17°C° 0 mm 0 m/s 746 mm Hg 79%
07:00 +20°C° 0.4 mm 1 m/s 746 mm Hg 77%
08:00 +20°C° 0.4 mm 2 m/s 746 mm Hg 76%
09:00 +21°C° 0.4 mm 2 m/s 746 mm Hg 75%
10:00 +20°C° 0.3 mm 2 m/s 746 mm Hg 78%
11:00 +19°C° 0.3 mm 2 m/s 746 mm Hg 81%
12:00 +18°C° 0.3 mm 2 m/s 746 mm Hg 84%
13:00 +19°C° 0 mm 3 m/s 746 mm Hg 80%
14:00 +19°C° 0 mm 3 m/s 747 mm Hg 76%
15:00 +19°C° 0 mm 3 m/s 747 mm Hg 72%
16:00 +19°C° 0 mm 3 m/s 747 mm Hg 74%
17:00 +18°C° 0 mm 3 m/s 747 mm Hg 75%
18:00 +17°C° 0 mm 3 m/s 747 mm Hg 77%
19:00 +17°C° 0 mm 2 m/s 748 mm Hg 78%
20:00 +16°C° 0 mm 2 m/s 748 mm Hg 78%
21:00 +16°C° 0 mm 2 m/s 749 mm Hg 79%
22:00 +15°C° 0 mm 2 m/s 748 mm Hg 81%
23:00 +15°C° 0 mm 2 m/s 748 mm Hg 84%

Dopodomani, 16 Luglio, Giovedi

Tempo Temperatura Precipitazioni Vento Pressione Umidità
00:00 +14°C° 0 mm 1 m/s 748 mm Hg 86%
01:00 +14°C° 0 mm 1 m/s 748 mm Hg 88%
02:00 +14°C° 0 mm 1 m/s 748 mm Hg 90%
03:00 +13°C° 0 mm 1 m/s 748 mm Hg 91%
04:00 +14°C° 0 mm 1 m/s 749 mm Hg 89%
05:00 +15°C° 0 mm 1 m/s 749 mm Hg 87%
06:00 +16°C° 0 mm 2 m/s 749 mm Hg 85%
07:00 +17°C° 0 mm 2 m/s 749 mm Hg 79%
08:00 +19°C° 0 mm 3 m/s 749 mm Hg 72%
09:00 +20°C° 0 mm 4 m/s 749 mm Hg 66%
10:00 +22°C° 0 mm 4 m/s 749 mm Hg 61%
11:00 +23°C° 0 mm 4 m/s 749 mm Hg 57%
12:00 +25°C° 0 mm 4 m/s 749 mm Hg 52%
13:00 +25°C° 0 mm 4 m/s 748 mm Hg 52%
14:00 +25°C° 0 mm 4 m/s 748 mm Hg 52%
15:00 +26°C° 0 mm 5 m/s 748 mm Hg 52%
16:00 +25°C° 0 mm 4 m/s 748 mm Hg 56%
17:00 +23°C° 0 mm 4 m/s 748 mm Hg 60%
18:00 +22°C° 0 mm 4 m/s 748 mm Hg 64%
19:00 +21°C° 0 mm 3 m/s 748 mm Hg 71%
20:00 +19°C° 0 mm 3 m/s 748 mm Hg 77%
21:00 +18°C° 0 mm 2 m/s 749 mm Hg 84%
22:00 +17°C° 0 mm 2 m/s 748 mm Hg 86%
23:00 +17°C° 0 mm 2 m/s 748 mm Hg 88%

17 Luglio, Venerdi

Tempo Temperatura Precipitazioni Vento Pressione Umidità
00:00 +16°C° 0 mm 2 m/s 748 mm Hg 90%
01:00 +16°C° 0 mm 2 m/s 748 mm Hg 90%
02:00 +15°C° 0 mm 2 m/s 748 mm Hg 91%
03:00 +15°C° 0 mm 2 m/s 747 mm Hg 92%
04:00 +16°C° 0 mm 2 m/s 747 mm Hg 89%
05:00 +16°C° 0 mm 2 m/s 747 mm Hg 87%
06:00 +17°C° 0 mm 2 m/s 748 mm Hg 85%
07:00 +19°C° 0 mm 3 m/s 747 mm Hg 79%
08:00 +20°C° 0 mm 3 m/s 747 mm Hg 74%
09:00 +22°C° 0 mm 4 m/s 747 mm Hg 69%
10:00 +23°C° 0.1 mm 4 m/s 747 mm Hg 64%
11:00 +25°C° 0.1 mm 5 m/s 747 mm Hg 58%
12:00 +26°C° 0.1 mm 5 m/s 747 mm Hg 53%
13:00 +26°C° 0.1 mm 5 m/s 747 mm Hg 54%
14:00 +26°C° 0.1 mm 5 m/s 746 mm Hg 54%
15:00 +26°C° 0.1 mm 6 m/s 746 mm Hg 55%
16:00 +25°C° 0 mm 5 m/s 746 mm Hg 58%
17:00 +23°C° 0 mm 5 m/s 746 mm Hg 62%
18:00 +23°C° 0 mm 4 m/s 746 mm Hg 65%
19:00 +21°C° 0 mm 4 m/s 747 mm Hg 69%
20:00 +20°C° 0 mm 4 m/s 747 mm Hg 72%
21:00 +18°C° 0 mm 3 m/s 748 mm Hg 75%
22:00 +17°C° 0 mm 3 m/s 748 mm Hg 79%
23:00 +17°C° 0 mm 3 m/s 748 mm Hg 82%

18 Luglio, Sabato

Tempo Temperatura Precipitazioni Vento Pressione Umidità
00:00 +16°C° 0 mm 3 m/s 748 mm Hg 85%
01:00 +16°C° 0 mm 2 m/s 748 mm Hg 88%
02:00 +15°C° 0 mm 2 m/s 748 mm Hg 90%
03:00 +15°C° 0 mm 2 m/s 748 mm Hg 93%
04:00 +16°C° 0 mm 2 m/s 748 mm Hg 90%
05:00 +16°C° 0 mm 2 m/s 748 mm Hg 88%
06:00 +17°C° 0 mm 2 m/s 748 mm Hg 86%
07:00 +19°C° 0 mm 2 m/s 748 mm Hg 77%
08:00 +21°C° 0 mm 3 m/s 748 mm Hg 69%
09:00 +22°C° 0 mm 3 m/s 748 mm Hg 60%
10:00 +25°C° 0 mm 3 m/s 747 mm Hg 56%
11:00 +26°C° 0 mm 3 m/s 747 mm Hg 52%
12:00 +27°C° 0 mm 4 m/s 747 mm Hg 48%
13:00 +27°C° 0 mm 4 m/s 747 mm Hg 48%
14:00 +27°C° 0 mm 4 m/s 747 mm Hg 48%
15:00 +28°C° 0 mm 4 m/s 746 mm Hg 47%
16:00 +27°C° 0 mm 3 m/s 747 mm Hg 52%
17:00 +26°C° 0 mm 3 m/s 747 mm Hg 56%
18:00 +25°C° 0 mm 3 m/s 747 mm Hg 61%
19:00 +24°C° 0 mm 2 m/s 747 mm Hg 66%
20:00 +21°C° 0 mm 2 m/s 747 mm Hg 71%
21:00 +20°C° 0 mm 1 m/s 748 mm Hg 76%
22:00 +20°C° 0 mm 1 m/s 748 mm Hg 79%
23:00 +19°C° 0 mm 1 m/s 747 mm Hg 82%

19 Luglio, Domenica

Tempo Temperatura Precipitazioni Vento Pressione Umidità
00:00 +18°C° 0 mm 1 m/s 747 mm Hg 85%
01:00 +18°C° 0 mm 1 m/s 747 mm Hg 86%
02:00 +18°C° 0 mm 1 m/s 747 mm Hg 88%
03:00 +16°C° 0 mm 1 m/s 747 mm Hg 89%
04:00 +18°C° 0 mm 1 m/s 747 mm Hg 87%
05:00 +19°C° 0 mm 1 m/s 747 mm Hg 84%
06:00 +18°C° 0 mm 0 m/s 747 mm Hg 82%
07:00 +22°C° 0 mm 1 m/s 747 mm Hg 74%
08:00 +24°C° 0 mm 1 m/s 747 mm Hg 66%
09:00 +26°C° 0 mm 1 m/s 747 mm Hg 58%
10:00 +27°C° 0 mm 1 m/s 747 mm Hg 53%
11:00 +28°C° 0 mm 2 m/s 747 mm Hg 48%
12:00 +30°C° 0 mm 2 m/s 746 mm Hg 43%
13:00 +30°C° 0 mm 2 m/s 746 mm Hg 41%
14:00 +31°C° 0 mm 2 m/s 746 mm Hg 40%
15:00 +31°C° 0 mm 2 m/s 746 mm Hg 39%
16:00 +30°C° 0 mm 2 m/s 746 mm Hg 43%
17:00 +29°C° 0 mm 1 m/s 746 mm Hg 47%
18:00 +28°C° 0 mm 1 m/s 746 mm Hg 52%
19:00 +26°C° 0 mm 1 m/s 747 mm Hg 56%
20:00 +24°C° 0 mm 1 m/s 747 mm Hg 60%
21:00 +22°C° 0 mm 1 m/s 748 mm Hg 64%
22:00 +21°C° 0 mm 1 m/s 748 mm Hg 68%
23:00 +21°C° 0 mm 1 m/s 748 mm Hg 71%
Mostrare altro